User: anonymous   Login
Location: ???? ??????? ????
(31.2176°N, 31.6797°E)
Time: 12:08:30
(UTC+00:00)
Language:

Cosmos 2315 Rocket - Orbit

View from above orbital plane
View from above orbital plane
View from above satellite
View from above satellite

Ground track
Ground track

The orbit data is extracted from the following two-line orbital elements,

1 23604U 95032B   21022.89971036  .00000082  00000-0  70602-4 0  9993
2 23604  82.9026 257.7601 0024208 173.2855 186.8630 13.74287105281505
Epoch (UTC): 22 January 2021 21:35:34
Eccentricity: 0.0024208
inclination: 82.9026°
perigee height: 966 km
apogee height: 1002 km
right ascension of ascending node: 257.7601°
argument of perigee: 173.2855°
revolutions per day: 13.74287105
mean anomaly at epoch: 186.8630°
orbit number at epoch: 28150

The dashed part of the orbit path shows where the satellite is in the earth's shadow,  

DLR